Regional Weather Roundup
Issued by NWS

Home | Current Version | Previous Version | Text Only | Print | Product List | Glossary Off
Versions: 1 2 3 4 5 6 7 8 9 10 11 12 13 14 15 16 17 18 19 20 21 22 23 24 25 26 27 28 29 30 31 32 33 34 35 36 37 38 39 40 41 42 43 44 45 46 47 48 49 50

000
ASUS43 KDTX 280001
RWRMI
MICHIGAN HOURLY REGIONAL WEATHER ROUNDUP
NATIONAL WEATHER SERVICE DETROIT/PONTIAC MI
800 PM EDT WED AUG 27 2014

NOTE: "FAIR" INDICATES FEW OR NO CLOUDS BELOW 12,000 FEET WITH NO
SIGNIFICANT WEATHER AND/OR OBSTRUCTION TO VISIBILITY.

MIZ047>049-052>055-059>063-066>070-074>076-081>083-280100-
SOUTHEAST LOWER MICHIGAN

CITY           SKY/WX    TMP DP  RH WIND       PRES   REMARKS
ADRIAN         MOCLDY    71  60  68 NE7       30.09S
6HR MIN TEMP:  71; 6HR MAX TEMP:  83;

ALMA           PTCLDY    71  57  61 N5        30.11S
ANN ARBOR      MOCLDY    72  56  57 N7        30.09S
BAD AXE        CLOUDY    64  54  68 NE7       30.12R
6HR MIN TEMP:  64; 6HR MAX TEMP:  72;

CARO           PTCLDY    66  60  81 CALM      30.10S
DETROIT CITY   PTCLDY    76  56  49 N7        30.08S
6HR MIN TEMP:  76; 6HR MAX TEMP:  82;

DETROIT        MOCLDY    72  58  61 NW7       30.09R
6HR MIN TEMP:  72; 6HR MAX TEMP:  81;

FLINT          PTCLDY    73  57  57 N6        30.10S
6HR MIN TEMP:  73; 6HR MAX TEMP:  78;

GROSSE ILE     MOCLDY    72  63  73 CALM      30.07R
HILLSDALE      CLOUDY    71  60  67 N6        30.11S
HOWELL         PTCLDY    69  60  71 CALM      30.10F
6HR MIN TEMP:  69; 6HR MAX TEMP:  75;


CITY           SKY/WX    TMP DP  RH WIND       PRES   REMARKS
JACKSON        CLOUDY    68  61  78 W3        30.10F
6HR MIN TEMP:  68; 6HR MAX TEMP:  79;

LAMBERTVILLE   MOCLDY    73  61  64 N8        30.09R
LANSING        PTCLDY    71  59  65 NW3       30.11F
6HR MIN TEMP:  71; 6HR MAX TEMP:  76;

LAPEER         MOCLDY    68  58  70 NE3       30.11R
MASON          MOCLDY    69  60  74 CALM      30.10F
MT. CLEMENS    MOCLDY    67  58  72 NE12      30.07F
6HR MIN TEMP:  67; 6HR MAX TEMP:  76;

PONTIAC        MOCLDY    71  56  58 N8        30.09S
6HR MIN TEMP:  71; 6HR MAX TEMP:  75;

PORT HOPE        N/A     64  53  67 N8        30.11F
6HR MIN TEMP:  64; 6HR MAX TEMP:  70;

PORT HURON     CLEAR     63  57  82 NE5       30.11S
TRI CITIES     PTCLDY    70  56  61 N7        30.10F
6HR MIN TEMP:  70; 6HR MAX TEMP:  76;

TROY           MOCLDY    74  55  51 N7        30.10S
SAGINAW HB     CLOUDY    68  61  77 CALM      30.09F
$$
MIZ043>046-050>051-056>058-064>065-071>073-077>080-280100-
SOUTHWEST LOWER MICHIGAN

CITY           SKY/WX    TMP DP  RH WIND       PRES   REMARKS
BATTLE CREEK   CLOUDY    72  60  66 N3        30.11F
6HR MIN TEMP:  72; 6HR MAX TEMP:  78;

BENTON HARBOR  CLOUDY    67  60  78 VRB5      30.11F
6HR MIN TEMP:  67; 6HR MAX TEMP:  74;

BIG RAPIDS     PTCLDY    66  57  72 NW5       30.13S
6HR MIN TEMP:  66; 6HR MAX TEMP:  74;

COLDWATER      CLOUDY    72  60  67 N7        30.10F
6HR MIN TEMP:  72; 6HR MAX TEMP:  81;

FREMONT        FAIR      67  48  50 N6        30.13S
HOLLAND        MOCLDY    69  56  62 NW5       30.13F
6HR MIN TEMP:  69; 6HR MAX TEMP:  78;

GRAND RAPIDS   MOCLDY    72  62  71 NW10      30.12S
6HR MIN TEMP:  72; 6HR MAX TEMP:  78;

IONIA          FAIR      71  60  66 NW3       30.10S
KALAMAZOO      CLOUDY    71  58  63 NW7       30.11F
6HR MIN TEMP:  71; 6HR MAX TEMP:  80;

LUDINGTON      PTCLDY    64  56  74 CALM      30.15F
6HR MIN TEMP:  64; 6HR MAX TEMP:  72;

MARSHALL       CLOUDY    69  60  74 CALM      30.10F
MOUNT PLEASANT PTCLDY    68  54  60 N3        30.11S
6HR MIN TEMP:  68; 6HR MAX TEMP:  76;

MUSKEGON       MOCLDY    69  52  54 N7        30.13F
6HR MIN TEMP:  69; 6HR MAX TEMP:  76;

SOUTH HAVEN    CLOUDY    68  62  80 N7        30.12S
$$
MIZ016>042-280100-
NORTHERN LOWER MICHIGAN

CITY           SKY/WX    TMP DP  RH WIND       PRES   REMARKS
ALPENA         CLOUDY    64  49  57 NW8       30.13R
6HR MIN TEMP:  64; 6HR MAX TEMP:  71;

BEAVER ISLAND  CLEAR     63  44  50 N5        30.16R
6HR MIN TEMP:  63; 6HR MAX TEMP:  68;

BELLAIRE       PTCLDY    62  50  65 CALM      30.15S
6HR MIN TEMP:  62; 6HR MAX TEMP:  69;

CADILLAC       CLEAR     62  51  68 N3        30.14F
CHARLEVOIX     PTCLDY    64  52  66 NW6       30.18S
6HR MIN TEMP:  64; 6HR MAX TEMP:  67;

FRANKFORT      CLEAR     66  49  55 CALM      30.15S
GAYLORD        CLEAR     60  47  61 VRB5      30.16R
6HR MIN TEMP:  60; 6HR MAX TEMP:  67;

GRAYLING       CLEAR     60  49  68 NW3       30.16S
6HR MIN TEMP:  60; 6HR MAX TEMP:  72;

HARBOR SPRINGS PTCLDY    62  46  55 W5        30.15S
HOUGHTON LAKE  CLEAR     63  49  60 NW6       30.15F
6HR MIN TEMP:  63; 6HR MAX TEMP:  72;

MANISTEE       CLEAR     64  52  63 NW3       30.15F
OSCODA         CLOUDY    64  55  70 S3        30.11S
PELLSTON       CLEAR     63  44  50 N9        30.15S
6HR MIN TEMP:  63; 6HR MAX TEMP:  68;

TRAVERSE CITY  PTCLDY    65  50  58 VRB5      30.14F
6HR MIN TEMP:  65; 6HR MAX TEMP:  70;

$$
MIZ007>008-015-280100-
EASTERN UPPER MICHIGAN

CITY           SKY/WX    TMP DP  RH WIND       PRES   REMARKS
KINROSS        PTCLDY    59  45  58 NW9       30.14F
6HR MIN TEMP:  59; 6HR MAX TEMP:  64;

MACKINAC ISLAN CLEAR     59  45  60 N9G17     30.14R
6HR MIN TEMP:  59; 6HR MAX TEMP:  67;

NEWBERRY       CLEAR     57  42  57 NW9       30.16R
S. S. MARIE    CLEAR     57  47  69 NW10      30.14F
6HR MIN TEMP:  57; 6HR MAX TEMP:  64;

$$
MIZ004>006-011>014-085-280100-
CENTRAL UPPER MICHIGAN

CITY           SKY/WX    TMP DP  RH WIND       PRES   REMARKS
MANISTIQUE     CLEAR     61  44  53 N5        30.15S
ESCANABA       PTCLDY    64  54  68 E9        30.15S
6HR MIN TEMP:  63; 6HR MAX TEMP:  68;

MENOMINEE      PTCLDY    66  55  68 S6        30.12F
6HR MIN TEMP:  64; 6HR MAX TEMP:  72;

SAWYER-GWINN   CLEAR     61  45  55 NE7       30.16F
$$
MIZ001>003-009>011-084-280100-
WESTERN UPPER MICHIGAN

CITY           SKY/WX    TMP DP  RH WIND       PRES   REMARKS
IRON MOUNTAIN  CLEAR     69  48  47 NE5       30.13F
6HR MIN TEMP:  66; 6HR MAX TEMP:  72;

HOUGHTON       CLEAR     60  46  59 W5        30.16S
6HR MIN TEMP:  60; 6HR MAX TEMP:  66;

COPPER HARBOR    N/A     62  45  53 VRB5      30.15S
6HR MIN TEMP:  58; 6HR MAX TEMP:  64;

$$

ABBREVIATIONS USED IN REMARKS
   TC - TEMPERATURE IN CELSIUS
  WCI - WIND CHILL INDEX
   HX - HEAT INDEX
  VSB - VISIBILITY




USA.gov is the U.S. government's official web portal to all federal, state and local government web resources and services.